EW1472 Weather Reports


time (UTC)temp
C
wind
direction
speed
KPH
gust
KPH
rain 1hr
cm
rain 24hr
cm
rain mn
cm
humidity
%
barometer
mb
20260510011006 20 231 0.0 1.6 0.00 0.00 0.00 86 1024.8
20260510010006 20 231 0.0 0.0 0.00 0.00 0.00 86 1024.9
20260510005006 20 231 0.0 3.2 0.00 0.00 0.00 85 1025.1
20260510004006 19 326 0.0 0.0 0.00 0.00 0.00 89 1025.1
20260510002006 18 326 0.0 0.0 0.00 0.00 0.00 90 1025.2
20260510001006 18 326 0.0 0.0 0.00 0.00 0.00 91 1025.5
20260510000005 17 326 0.0 0.0 0.00 0.00 0.00 91 1025.3
20260509234006 17 326 0.0 0.0 0.00 0.00 0.00 91 1025.3
20260509233005 17 326 0.0 0.0 0.00 0.00 0.00 91 1025.4
20260509232005 16 326 0.0 0.0 0.00 0.00 0.00 91 1025.4
20260509231007 16 326 0.0 0.0 0.00 0.00 0.00 92 1025.3
20260509230006 16 326 0.0 0.0 0.00 0.00 0.00 92 1025.2
20260509225006 16 326 0.0 3.2 0.00 0.00 0.00 92 1024.9
20260509224006 16 329 0.0 0.0 0.00 0.00 0.00 92 1024.9
20260509222015 16 329 0.0 0.0 0.00 0.00 0.00 92 1024.6
20260509221007 16 329 0.0 0.0 0.00 0.00 0.00 92 1024.5
20260509220005 16 329 0.0 0.0 0.00 0.00 0.00 92 1024.4
20260509214005 15 329 1.6 1.6 0.00 0.00 0.00 93 1024.1
20260509213006 15 330 0.0 0.0 0.00 0.00 0.00 94 1024.1
20260509212005 15 142 0.0 0.0 0.00 0.00 0.00 96 1024.0
20260509211005 14 142 0.0 0.0 0.00 0.00 0.00 94 1023.9
20260509205006 15 323 0.0 0.0 0.00 0.00 0.00 95 1023.4
20260509204004 14 323 0.0 0.0 0.00 0.00 0.00 94 1023.3
20260509203005 13 323 0.0 0.0 0.00 0.00 0.00 93 1023.0
20260509202005 13 323 0.0 0.0 0.00 0.00 0.00 94 1023.1
20260509201006 13 330 0.0 0.0 0.00 0.00 0.00 94 1023.2
20260509200005 13 330 0.0 0.0 0.00 0.00 0.00 94 1022.9
20260509195005 13 272 0.0 0.0 0.00 0.00 0.00 93 1022.8
20260509194004 13 272 0.0 0.0 0.00 0.00 0.00 93 1022.8
20260509193004 13 201 0.0 0.0 0.00 0.00 0.00 93 1022.9
20260509192004 13 200 0.0 0.0 0.00 0.00 0.00 94 1022.9
20260509191005 13 200 0.0 0.0 0.00 0.00 0.00 93 1022.7
20260509190006 13 200 0.0 0.0 0.00 0.00 0.00 94 1022.7
20260509185005 13 200 0.0 0.0 0.00 0.00 0.00 93 1022.5
20260509184004 13 200 0.0 0.0 0.00 0.00 0.00 93 1022.4
20260509183004 13 200 0.0 0.0 0.00 0.00 0.00 93 1022.5
20260509182005 13 200 0.0 0.0 0.00 0.00 0.00 92 1022.5
20260509181007 13 200 0.0 0.0 0.00 0.00 0.00 93 1022.5
20260509180005 13 200 0.0 0.0 0.00 0.00 0.00 94 1022.4
20260509175005 13 200 0.0 0.0 0.00 0.00 0.00 93 1022.4
20260509174005 13 200 0.0 0.0 0.00 0.00 0.00 94 1022.3
20260509173005 12 200 0.0 0.0 0.00 0.00 0.00 94 1022.2
20260509172004 12 200 0.0 0.0 0.00 0.00 0.00 93 1022.4
20260509171005 12 200 0.0 0.0 0.00 0.00 0.00 94 1022.3
20260509170006 12 200 0.0 0.0 0.00 0.00 0.00 93 1022.3
20260509165005 12 200 0.0 0.0 0.00 0.00 0.00 94 1022.3
20260509164005 12 200 0.0 0.0 0.00 0.00 0.00 93 1022.3
20260509163005 12 200 0.0 0.0 0.00 0.00 0.00 93 1022.4
20260509162005 12 200 0.0 0.0 0.00 0.00 0.00 93 1022.4
20260509161005 12 200 0.0 0.0 0.00 0.00 0.00 94 1022.5
20260509160005 12 200 0.0 0.0 0.00 0.00 0.00 93 1022.3
20260509155005 12 200 0.0 0.0 0.00 0.00 0.00 93 1022.4
20260509154005 13 200 0.0 1.6 0.00 0.00 0.00 93 1022.4
20260509153005 12 200 0.0 0.0 0.00 0.00 0.00 93 1022.4
20260509151005 13 200 0.0 0.0 0.00 0.00 0.00 94 1022.5
20260509145005 12 200 0.0 0.0 0.00 0.00 0.00 93 1022.6
20260509144005 12 200 0.0 0.0 0.00 0.00 0.00 94 1022.5
20260509143005 13 200 0.0 0.0 0.00 0.00 0.00 94 1022.5
20260509142005 13 200 0.0 0.0 0.00 0.00 0.00 95 1022.6
20260509140007 13 200 0.0 0.0 0.00 0.00 0.00 95 1022.6
20260509135005 13 200 0.0 0.0 0.00 0.00 0.00 95 1022.7
20260509134005 13 200 0.0 0.0 0.00 0.00 0.00 95 1022.9
20260509133005 13 200 0.0 0.0 0.00 0.00 0.00 95 1023.0
20260509132005 13 200 0.0 0.0 0.00 0.00 0.00 95 1023.1
20260509131005 13 200 0.0 0.0 0.00 0.00 0.00 95 1023.1
20260509130005 13 200 0.0 0.0 0.00 0.00 0.00 95 1023.2
20260509125005 13 200 0.0 0.0 0.00 0.00 0.00 95 1023.2
20260509124005 13 200 0.0 0.0 0.00 0.00 0.00 95 1023.3
20260509123005 13 200 0.0 0.0 0.00 0.00 0.00 95 1023.3
20260509122010 13 200 0.0 0.0 0.00 0.00 0.00 95 1023.2
20260509121006 13 200 0.0 0.0 0.00 0.00 0.00 94 1023.2
20260509120009 13 200 0.0 0.0 0.00 0.00 0.00 94 1023.1
20260509115005 13 200 0.0 0.0 0.00 0.00 0.00 94 1023.2
20260509114010 13 200 0.0 0.0 0.00 0.00 0.00 94 1023.4
20260509113005 13 200 0.0 0.0 0.00 0.00 0.00 94 1023.4
20260509112005 13 200 0.0 0.0 0.00 0.00 0.00 94 1023.1
20260509111005 13 200 0.0 0.0 0.00 0.00 0.00 94 1023.2
20260509110005 13 200 0.0 0.0 0.00 0.00 0.00 94 1023.2
20260509104005 13 200 0.0 0.0 0.00 0.00 0.00 93 1023.1
20260509103005 13 200 0.0 0.0 0.00 0.00 0.00 93 1023.1
20260509102005 13 200 0.0 0.0 0.00 0.00 0.00 93 1023.1
20260509101005 13 200 0.0 0.0 0.00 0.00 0.00 93 1023.1
20260509100006 13 200 0.0 0.0 0.00 0.00 0.00 93 1023.0
20260509095005 14 200 0.0 0.0 0.00 0.00 0.00 92 1023.0
20260509094005 14 200 0.0 0.0 0.00 0.00 0.00 92 1023.0
20260509093012 14 200 0.0 0.0 0.00 0.00 0.00 92 1022.8
20260509092005 14 200 0.0 0.0 0.00 0.00 0.00 92 1022.7
20260509091005 14 200 0.0 0.0 0.00 0.00 0.00 91 1022.6
20260509090006 14 200 0.0 0.0 0.00 0.00 0.00 91 1022.5
20260509085005 14 200 0.0 0.0 0.00 0.00 0.00 91 1022.4
20260509081005 15 200 0.0 0.0 0.00 0.00 0.00 91 1021.9
20260509080007 15 200 0.0 0.0 0.00 0.00 0.00 92 1021.8
20260509075006 15 200 0.0 0.0 0.00 0.00 0.00 91 1021.7
20260509074006 15 200 0.0 0.0 0.00 0.00 0.00 91 1021.6
20260509073005 15 200 0.0 0.0 0.00 0.00 0.00 92 1021.4
20260509072005 16 200 0.0 0.0 0.00 0.00 0.00 91 1021.5
20260509070006 16 200 0.0 0.0 0.00 0.00 0.00 90 1021.1
20260509065010 16 200 0.0 0.0 0.00 0.00 0.00 89 1020.9
20260509064005 16 200 0.0 0.0 0.00 0.00 0.00 89 1020.8
20260509063010 17 200 0.0 3.2 0.00 0.00 0.00 88 1020.6
20260509062005 16 114 0.0 0.0 0.00 0.00 0.00 88 1020.6
20260509061005 16 119 0.0 1.6 0.00 0.00 0.00 85 1020.4
20260509055005 16 314 0.0 0.0 0.00 0.00 0.00 88 1020.3
20260509054006 16 314 0.0 1.6 0.00 0.00 0.00 89 1020.2
20260509053005 16 314 0.0 0.0 0.00 0.00 0.00 89 1020.3
20260509052005 16 314 0.0 1.6 0.00 0.00 0.00 89 1020.2
20260509051005 16 314 0.0 1.6 0.00 0.00 0.00 88 1020.1
20260509044005 17 314 0.0 0.0 0.00 0.00 0.00 88 1020.0
20260509043005 17 314 0.0 0.0 0.00 0.00 0.00 87 1020.1
20260509042006 17 314 0.0 0.0 0.00 0.00 0.00 86 1020.1
20260509041005 17 314 0.0 0.0 0.00 0.00 0.00 87 1020.2
20260509035005 17 314 0.0 0.0 0.00 0.00 0.00 87 1020.1
20260509034005 17 314 0.0 0.0 0.00 0.00 0.00 86 1020.1
20260509033005 17 314 0.0 0.0 0.00 0.00 0.00 85 1020.2
20260509032005 18 314 0.0 1.6 0.00 0.00 0.00 86 1020.2
20260509031005 18 314 0.0 0.0 0.00 0.00 0.00 84 1020.3
20260509030006 18 314 0.0 1.6 0.00 0.00 0.00 83 1020.5
20260509025005 18 224 0.0 0.0 0.00 0.00 0.00 82 1020.6
20260509024006 18 224 0.0 1.6 0.00 0.00 0.00 76 1020.6
20260509023005 18 18 0.0 0.0 0.00 0.00 0.00 81 1020.7
20260509021006 20 179 0.0 0.0 0.00 0.00 0.00 80 1021.0
20260509020005 19 248 0.0 1.6 0.00 0.00 0.00 75 1021.3
20260509015006 19 134 0.0 0.0 0.00 0.00 0.00 81 1021.4
20260509014005 19 308 0.0 0.0 0.00 0.00 0.00 81 1021.4
20260509013006 19 302 0.0 3.2 0.00 0.00 0.00 82 1021.4
20260509012005 19 307 0.0 0.0 0.00 0.00 0.00 82 1021.4